Limon, CO

1:20 PM MDT on April 27, 2017 (GMT -0600)
Limon Municipal

Weather History for KLIC - January, 2014

Change the Weather History Date:

Saturday, January 25, 2014

  Actual Average Record
Temperature  
Mean Temperature 38 °F -  
Max Temperature 53 °F - 62 °F (2002)
Min Temperature 23 °F - 3 °F (2011)
Degree Days  
Heating Degree Days 27    
Month to date heating degree days 1006  
Cooling Degree Days 0    
Month to date cooling degree days 0  
Moisture  
Dew Point 22 °F    
Average Humidity 61    
Maximum Humidity 92    
Minimum Humidity 30    
Precipitation  
Precipitation 0.00 in - 0.04 in (2004)
Month to date precipitation 0.51  
Year to date precipitation 0.51  
Sea Level Pressure  
Sea Level Pressure 30.07 in    
Wind  
Wind Speed 8 mph (WNW)    
Max Wind Speed 16 mph    
Max Gust Speed 18 mph    
Visibility 10 miles    
Events      
T = Trace of Precipitation, MM = Missing Value Source: NWS Daily Summary

Daily Weather History Graph

Daily Weather History Graph

Search for Another Location

Airport or City:

Trip Planner

Search our weather history database for the weather conditions in past years. The results will help you decide how hot, cold, wet, or windy it might be!

Date:

Astronomy

Jan. 25, 2014 Rise Set
Actual Time 7:07 AM MST 5:07 PM MST
Civil Twilight 6:38 AM MST 5:36 PM MST
Nautical Twilight 6:06 AM MST 6:08 PM MST
Astronomical Twilight 5:34 AM MST 6:40 PM MST
Moon 1:42 AM MST (1/25) 12:09 PM MST (1/25)
Length of Visible Light 10h 57m
Length of Day
10h 00m
Waning Crescent, 33% of the Moon is Illuminated
Jan 25
Waning Crescent
Jan 30
New
Feb 6
First Quarter
Feb 14
Full
Feb 22
Last Quarter

Hourly Weather History & Observations

Time (MST) Temp. Windchill Dew Point Humidity Pressure Visibility Wind Dir Wind Speed Gust Speed Precip Events Conditions
12:55 AM 28.9 °F 19.8 °F 19.9 °F 69% 30.20 in 10.0 mi NNW 10.4 mph - N/A   Clear
1:55 AM 28.9 °F 21.9 °F 19.9 °F 69% 30.19 in 10.0 mi West 6.9 mph - N/A   Clear
2:55 AM 30.9 °F 20.2 °F 19.9 °F 64% 30.16 in 10.0 mi WNW 15.0 mph - N/A   Clear
3:55 AM 32.0 °F 22.5 °F 19.9 °F 61% 30.14 in 10.0 mi WNW 12.7 mph - N/A   Clear
4:55 AM 30.9 °F 21.2 °F 19.9 °F 64% 30.17 in 10.0 mi WNW 12.7 mph - N/A   Clear
5:55 AM 28.9 °F 23.9 °F 19.9 °F 69% 30.19 in 10.0 mi North 4.6 mph - N/A   Clear
6:55 AM 30.0 °F 23.2 °F 18.0 °F 61% 30.19 in 10.0 mi WNW 6.9 mph - N/A   Clear
7:55 AM 30.9 °F 26.2 °F 19.9 °F 64% 30.21 in 10.0 mi NW 4.6 mph - N/A   Clear
8:55 AM 39.9 °F 35.8 °F 24.1 °F 53% 30.18 in 10.0 mi NNW 5.8 mph - N/A   Clear
9:55 AM 44.1 °F 39.5 °F 21.0 °F 40% 30.18 in 10.0 mi WSW 8.1 mph - N/A   Clear
10:55 AM 48.9 °F - 19.9 °F 32% 30.15 in 10.0 mi NW 3.5 mph - N/A   Clear
11:55 AM 51.1 °F - 21.9 °F 32% 30.11 in 10.0 mi NNW 3.5 mph - N/A   Clear
12:55 PM 50.0 °F - 23.0 °F 35% 30.05 in 10.0 mi SE 3.5 mph - N/A   Clear
1:55 PM 52.0 °F - 23.0 °F 32% 29.99 in 10.0 mi SSE 4.6 mph - N/A   Clear
2:55 PM 52.0 °F - 21.0 °F 30% 29.95 in 10.0 mi SSE 11.5 mph - N/A   Clear
3:55 PM 50.0 °F - 21.0 °F 32% 29.94 in 10.0 mi SSE 10.4 mph - N/A   Clear
4:55 PM 42.1 °F 38.4 °F 23.0 °F 47% 29.95 in 10.0 mi SSE 5.8 mph - N/A   Clear
5:55 PM 28.9 °F - 24.1 °F 82% 30.01 in 10.0 mi Calm Calm - N/A   Clear
6:55 PM 27.0 °F - 24.1 °F 89% 30.01 in 10.0 mi Calm Calm - N/A   Clear
7:55 PM 26.1 °F 20.5 °F 23.0 °F 88% 30.00 in 10.0 mi North 4.6 mph - N/A   Clear
8:55 PM 28.9 °F 25.2 °F 24.1 °F 82% 29.93 in 10.0 mi SW 3.5 mph - N/A   Clear
9:55 PM 25.0 °F 19.3 °F 21.9 °F 88% 29.92 in 10.0 mi WNW 4.6 mph - N/A   Clear
10:55 PM 28.0 °F 22.8 °F 23.0 °F 81% 29.89 in 10.0 mi West 4.6 mph - N/A   Clear
11:55 PM 33.1 °F 27.7 °F 24.1 °F 70% 29.88 in 10.0 mi West 5.8 mph - N/A   Clear